Tracking 25693 objects as of 1-Jul-2022
HD Live streaming from Space Station
objects crossing your sky now

TEVEL-3

Track TEVEL-3 now!
10-day predictions
TEVEL-3 is classified as:


NORAD ID: 50988
Int'l Code: 2022-002E
Perigee: 522.7 km
Apogee: 536.1 km
Inclination: 97.5 °
Period: 95.1 minutes
Semi major axis: 6900 km
RCS: Unknown
Launch date: January 13, 2022
Source: (TBD)
Launch site: AIR FORCE EASTERN TEST RANGE (AFETR)

Uplink (MHz): 145.970
Downlink (MHz): 436.400
Beacon (MHz):
Mode: 9600bps BPSK FM
Call sign: T3TYB
Status: Active

aabbcc
Your satellite tracking list
Your tracking list is empty




NASA's NSSDC Master Catalog

Two Line Element Set (TLE):
1 50988U 22002E   22182.64881859  .00004763  00000-0  26144-3 0  9990
2 50988  97.4816 249.3951 0009776  25.4022 128.1873 15.14576879 25565
Source of the keplerian elements: AFSPC